Wind_Speed
2 3 4 4 4 4 4 5 6 7 7 7 7 7 6 6 6 6 7 7 6 6 5 5 5 5 5 5 5 5 5 6 6 7 7 7 7 8 8 8 8 8 8
2 3 4 3 3 4 4 4 5 7 7 8 8 8 7 7 6 7 8 7 7 7 6 6 6 6 6 6 6 6 6 6 7 7 8 8 8 8 8 8 9 9 9
2 3 4 2 2 3 4 4 5 6 7 7 7 8 8 8 7 8 8 8 8 7 7 7 7 7 6 6 6 6 6 6 7 7 8 8 7 8 8 9 9 10 10
3 3 4 3 3 4 4 4 4 5 6 7 8 8 8 9 9 8 8 8 9 9 8 9 8 8 7 7 7 7 7 7 8 8 8 8 9 8 8 9 9 10 10
3 4 4 4 4 4 4 4 5 6 6 7 8 8 8 8 9 8 8 9 9 10 9 9 9 10 9 9 9 8 8 9 9 9 10 10 10 9 9 10 10 10 10
4 4 5 5 4 4 4 4 5 6 6 6 6 7 8 9 9 9 9 9 9 10 10 10 9 9 9 9 9 9 9 10 10 10 10 10 10 10 10 10 10 10 9
4 5 6 6 5 4 5 5 6 6 7 7 7 6 7 8 9 9 9 10 10 11 11 11 11 10 10 10 10 10 10 9 10 11 11 11 10 10 10 11 11 11 10
5 6 6 6 6 5 6 6 7 7 7 7 7 7 7 8 9 9 10 11 11 11 12 12 12 12 12 12 12 11 11 11 11 11 11 11 11 11 11 10 11 11 11
5 6 7 7 8 8 7 6 7 8 8 8 8 8 9 10 10 11 11 12 12 12 13 13 13 13 13 13 13 13 13 12 13 12 12 13 13 12 13 12 12 12 11
7 7 8 8 8 8 8 8 8 9 9 9 10 10 11 11 11 12 12 13 13 13 13 13 13 13 14 14 14 14 14 13 13 14 14 14 14 14 14 14 13 13 13
9 9 9 10 10 10 10 10 10 10 11 11 11 11 12 12 11 12 13 13 14 14 14 15 15 15 15 16 16 15 15 15 14 14 14 15 15 15 14 14 14 15 14
10 10 10 10 10 10 10 11 11 12 12 12 12 12 13 13 13 13 13 14 15 15 15 15 16 16 16 17 17 17 16 16 16 16 16 16 16 16 16 15 15 16 16
12 12 11 10 10 11 11 12 12 12 13 13 13 13 13 13 13 14 14 14 14 15 15 16 16 17 17 18 18 18 17 17 17 17 17 17 16 16 17 17 17 17 18
13 12 11 12 12 12 12 13 13 13 13 14 14 14 14 15 15 15 14 14 15 15 16 16 18 18 18 19 19 19 19 18 18 18 18 18 18 18 18 18 19 18 18
14 14 13 13 12 13 13 13 13 14 14 14 14 15 15 16 16 16 16 16 16 16 16 16 17 18 19 19 19 19 20 21 21 21 20 20 19 19 19 19 20 20 20
14 15 14 14 14 14 14 14 14 14 15 16 16 16 17 17 17 17 18 18 19 18 17 17 18 18 19 19 20 21 21 22 23 22 22 21 21 21 20 20 20 21 22
16 16 16 16 16 16 15 15 16 16 16 17 17 17 18 18 18 18 19 19 19 20 19 19 20 21 22 22 22 22 23 24 24 23 23 22 22 22 22 22 22 23 23
17 18 18 17 18 18 17 17 17 17 17 17 18 18 19 19 19 20 20 20 21 21 21 22 22 22 23 24 24 24 25 25 25 25 24 24 23 23 23 23 23 23 23
18 18 18 18 18 18 18 18 18 18 18 18 19 20 20 20 20 20 21 22 23 23 24 24 24 24 24 25 25 26 26 26 26 26 26 25 24 24 24 24 24 24 24
19 19 18 19 19 19 19 19 19 19 19 19 20 21 21 21 22 22 23 23 24 24 25 25 24 24 25 25 26 26 26 27 27 27 27 26 26 25 26 25 25 25 26
20 20 20 20 20 21 20 21 20 20 20 21 21 21 22 22 23 24 24 24 24 25 25 25 25 25 25 25 26 27 27 27 27 27 28 28 28 28 28 27 28 28 28
22 22 22 22 22 21 21 21 21 21 21 22 22 22 23 23 23 24 24 24 24 25 25 25 25 25 25 26 27 28 27 27 26 27 29 29 30 30 30 30 30 30 29
23 24 25 24 24 24 23 22 21 22 22 22 23 23 23 23 24 24 24 24 25 26 27 26 26 26 27 27 27 28 28 28 28 28 29 29 30 30 31 31 31 31 30
25 25 25 25 24 24 23 23 22 22 23 23 23 23 23 23 23 23 24 24 25 26 27 27 27 27 28 28 28 29 29 29 29 29 30 30 30 30 31 31 31 31 31
26 26 25 25 24 24 24 24 24 23 23 24 24 24 24 24 24 24 25 25 25 25 25 26 27 28 29 29 29 29 29 29 29 29 30 30 30 31 31 31 32 32 31
26 26 26 25 26 25 25 24 25 24 24 25 25 25 24 24 25 26 27 26 26 26 26 27 28 29 29 30 29 29 30 29 30 30 30 31 31 31 31 32 32 31 31
Wind_Direction
285 291 295 286 276 258 251 244 240 233 232 230 225 226 233 240 243 248 242 241 244 239 241 248 256 260 264 259 257 267 262 255 253 256 262 267 270 273 268 266 265 265 263
326 318 307 300 289 269 272 261 246 237 235 232 230 232 237 241 247 249 245 238 241 239 238 242 247 254 258 256 256 264 262 255 254 257 263 268 269 271 269 267 269 268 266
336 327 314 306 295 279 274 273 251 240 239 235 236 238 243 242 245 247 248 241 237 236 235 239 245 247 252 257 258 260 264 261 260 261 266 270 270 271 271 271 272 272 269
325 325 321 321 301 286 275 270 252 239 237 236 238 241 242 241 245 243 244 239 238 238 239 242 246 248 253 257 258 261 260 259 264 264 264 269 271 273 272 275 275 274 273
334 324 320 320 299 287 275 265 250 239 245 240 240 241 243 244 244 245 242 244 244 244 245 250 251 248 252 256 260 263 262 263 266 266 267 267 268 271 273 276 278 278 273
330 329 326 317 303 283 268 262 253 244 245 248 249 246 247 249 245 242 243 243 243 247 248 249 250 246 255 254 257 261 261 265 265 267 268 269 268 270 272 276 275 277 275
328 326 321 318 319 295 280 270 263 254 249 251 259 262 257 254 253 253 249 246 244 246 248 250 253 252 252 255 257 263 262 270 270 271 269 269 268 268 272 276 272 273 276
319 318 315 308 308 302 291 278 271 263 261 259 261 268 267 264 259 257 252 250 248 250 252 256 257 255 255 258 261 261 262 267 273 276 274 274 272 272 274 274 271 272 275
317 314 309 302 299 296 290 280 271 266 265 264 264 268 267 265 264 262 256 252 251 253 255 258 258 256 256 259 263 263 262 263 268 272 275 274 271 271 271 271 269 269 272
313 311 309 306 304 300 295 286 281 274 272 271 270 269 266 266 264 262 261 255 252 253 254 256 257 259 258 259 261 262 261 263 266 270 273 273 273 270 268 268 271 270 270
316 312 306 302 298 294 292 288 284 279 275 272 273 271 270 269 268 266 262 260 256 254 255 257 259 260 261 262 261 259 261 263 268 270 273 274 276 271 269 268 270 270 268
311 309 305 301 298 295 292 289 286 284 283 278 276 273 273 272 270 267 264 260 259 259 260 263 263 263 263 262 262 261 262 265 268 269 271 274 276 273 270 268 269 270 268
313 308 313 309 304 301 296 291 287 285 282 279 279 279 279 278 275 271 268 265 265 264 265 265 266 266 266 265 264 263 264 267 268 270 271 273 274 273 270 268 268 269 269
313 308 307 306 302 301 298 294 288 283 281 277 275 278 277 276 276 276 276 275 273 272 269 268 269 269 269 269 267 267 268 269 269 273 273 273 274 273 272 269 268 270 269
312 310 306 304 301 303 302 298 292 285 283 279 276 276 276 276 274 275 275 275 276 274 272 272 273 272 270 269 270 271 270 270 271 273 273 272 273 273 272 269 268 269 269
307 307 308 305 303 300 298 296 293 285 282 281 278 276 275 276 275 274 274 276 275 273 271 271 273 272 272 272 272 272 271 270 270 273 274 273 273 272 272 270 269 268 268
303 303 303 302 301 301 296 294 292 287 283 281 279 278 277 277 277 275 275 275 275 275 274 273 273 271 271 271 272 272 272 272 272 274 276 275 273 273 273 272 269 270 269
302 299 299 300 298 298 298 296 293 288 284 280 278 278 278 278 278 277 275 275 275 274 274 274 273 274 272 273 272 271 272 272 272 272 273 274 275 273 272 271 271 270 270
302 300 298 298 299 298 298 297 295 291 286 282 278 276 276 277 278 278 277 276 276 275 275 275 274 275 275 273 272 272 272 271 271 270 271 272 272 271 270 270 270 270 271
301 300 299 298 298 297 297 297 296 292 288 284 280 278 277 277 276 277 277 277 276 276 275 276 275 276 274 273 272 272 273 270 269 269 269 270 271 270 269 269 268 269 271
301 301 300 298 296 295 294 295 293 291 290 286 283 281 279 279 278 278 277 276 275 276 276 276 275 276 276 274 273 273 275 272 269 268 268 269 270 270 269 269 268 269 269
302 301 300 297 296 294 293 289 288 288 287 287 284 283 281 279 281 282 280 278 276 276 276 276 277 276 275 276 276 274 275 272 270 270 270 270 270 270 270 270 270 268 268
301 300 298 296 294 293 292 289 287 288 288 288 286 284 282 280 280 281 281 280 279 277 276 277 276 276 275 276 276 276 275 272 270 269 270 269 268 269 268 268 267 267 267
300 299 297 296 294 292 289 287 287 289 290 289 288 285 282 280 282 283 283 282 281 278 276 276 277 276 276 278 278 279 277 273 272 272 272 271 269 268 267 267 266 267 267
300 299 299 298 296 292 287 285 285 288 289 290 290 286 283 281 282 283 283 283 281 279 277 277 278 277 277 279 280 278 277 274 272 271 272 272 271 270 269 267 266 266 266
300 298 297 298 297 293 289 285 286 287 289 290 289 288 287 285 282 282 283 283 282 281 279 279 279 279 278 279 280 278 276 275 273 271 270 270 270 269 268 267 265 265 265
Height
5885 5884 5883 5883 5882 5882 5881 5881 5882 5882 5883 5884 5885 5885 5886 5886 5887 5887 5887 5887 5887 5887 5887 5887 5887 5887 5886 5886 5886 5885 5884 5884 5884 5884 5884 5883 5883 5883 5882 5882 5881 5881 5880
5884 5883 5883 5882 5881 5880 5880 5880 5880 5881 5881 5882 5883 5884 5884 5884 5885 5885 5885 5885 5885 5885 5885 5885 5885 5885 5885 5884 5884 5884 5883 5883 5882 5882 5882 5882 5881 5881 5880 5880 5879 5879 5878
5883 5882 5882 5880 5880 5879 5879 5879 5879 5879 5880 5880 5881 5882 5882 5882 5883 5883 5883 5883 5883 5883 5883 5883 5883 5883 5883 5882 5882 5882 5882 5881 5881 5880 5880 5880 5879 5879 5878 5878 5877 5877 5876
5882 5881 5880 5879 5879 5878 5878 5878 5878 5878 5878 5879 5879 5880 5880 5880 5880 5880 5881 5881 5881 5881 5881 5881 5881 5881 5880 5880 5880 5880 5880 5879 5879 5878 5878 5877 5877 5876 5876 5876 5875 5875 5874
5881 5880 5879 5878 5877 5877 5877 5877 5877 5877 5877 5877 5878 5878 5878 5878 5878 5878 5878 5878 5878 5878 5879 5879 5879 5878 5878 5878 5878 5877 5877 5877 5877 5876 5876 5875 5875 5874 5874 5873 5873 5872 5872
5880 5879 5878 5877 5877 5876 5876 5876 5876 5876 5876 5875 5875 5875 5876 5876 5876 5875 5875 5876 5876 5876 5876 5876 5876 5876 5876 5875 5875 5875 5874 5874 5873 5873 5873 5872 5872 5872 5871 5871 5870 5870 5869
5879 5878 5878 5877 5876 5875 5875 5874 5874 5874 5874 5874 5873 5873 5873 5873 5873 5872 5872 5873 5873 5873 5873 5873 5873 5873 5873 5873 5873 5872 5872 5872 5871 5871 5870 5870 5869 5869 5868 5867 5867 5867 5866
5878 5877 5877 5876 5875 5874 5873 5873 5873 5872 5872 5872 5872 5871 5871 5871 5870 5870 5869 5869 5870 5870 5870 5870 5870 5870 5870 5871 5870 5870 5870 5869 5869 5868 5867 5867 5866 5866 5865 5865 5864 5864 5863
5877 5876 5875 5874 5873 5872 5872 5871 5871 5871 5870 5870 5869 5869 5868 5868 5867 5867 5867 5867 5867 5867 5867 5867 5867 5867 5867 5867 5867 5867 5866 5866 5866 5865 5864 5864 5863 5862 5862 5862 5861 5861 5860
5875 5874 5873 5872 5871 5871 5870 5869 5868 5868 5867 5867 5866 5866 5866 5865 5865 5864 5864 5863 5864 5864 5864 5864 5864 5863 5863 5864 5863 5863 5863 5863 5862 5862 5861 5860 5859 5859 5858 5858 5858 5857 5857
5873 5871 5871 5870 5869 5868 5867 5866 5866 5865 5865 5864 5863 5863 5862 5862 5861 5861 5860 5860 5860 5860 5860 5860 5860 5860 5860 5859 5859 5859 5859 5859 5858 5858 5858 5857 5856 5855 5855 5854 5854 5853 5853
5870 5869 5868 5867 5866 5865 5864 5863 5863 5862 5861 5861 5860 5859 5859 5858 5857 5857 5856 5856 5856 5856 5856 5856 5855 5855 5855 5855 5855 5855 5855 5855 5855 5854 5854 5853 5852 5851 5851 5850 5849 5849 5849
5868 5867 5865 5864 5863 5862 5861 5860 5859 5858 5858 5857 5856 5856 5855 5854 5854 5853 5853 5852 5852 5852 5851 5851 5851 5851 5850 5850 5850 5850 5850 5850 5850 5850 5849 5849 5848 5847 5846 5846 5845 5845 5844
5865 5864 5862 5861 5860 5858 5857 5856 5855 5854 5854 5853 5852 5852 5851 5850 5850 5849 5848 5848 5848 5847 5847 5847 5846 5846 5846 5845 5845 5845 5845 5845 5845 5845 5844 5843 5843 5842 5841 5841 5840 5839 5839
5862 5861 5859 5858 5856 5855 5854 5852 5851 5850 5849 5848 5848 5847 5846 5846 5845 5844 5844 5844 5844 5843 5843 5842 5841 5840 5840 5840 5840 5840 5840 5839 5839 5839 5838 5838 5837 5836 5836 5835 5834 5834 5834
5859 5858 5856 5854 5853 5852 5850 5848 5846 5845 5844 5844 5843 5842 5841 5841 5840 5839 5839 5838 5838 5838 5837 5837 5836 5835 5835 5834 5834 5834 5834 5833 5833 5833 5832 5832 5831 5830 5829 5829 5828 5828 5828
5856 5854 5852 5851 5849 5847 5846 5844 5842 5840 5839 5838 5838 5837 5836 5835 5834 5834 5833 5832 5832 5831 5831 5831 5830 5829 5829 5828 5828 5827 5827 5827 5826 5826 5825 5825 5824 5824 5823 5823 5822 5822 5821
5852 5850 5848 5846 5844 5843 5841 5839 5837 5835 5834 5833 5832 5831 5830 5829 5828 5828 5827 5826 5826 5825 5825 5824 5823 5822 5822 5821 5821 5821 5820 5820 5820 5819 5818 5818 5817 5817 5816 5816 5815 5815 5814
5847 5845 5843 5842 5840 5838 5836 5834 5832 5830 5828 5827 5826 5825 5824 5823 5822 5821 5820 5820 5819 5818 5818 5817 5816 5815 5814 5814 5813 5813 5812 5812 5812 5812 5811 5811 5810 5810 5809 5809 5808 5807 5807
5842 5840 5838 5836 5834 5832 5830 5828 5826 5824 5823 5821 5820 5818 5817 5816 5815 5814 5813 5812 5811 5810 5810 5809 5808 5808 5807 5806 5805 5804 5804 5804 5804 5803 5803 5803 5802 5802 5802 5801 5800 5800 5799
5837 5835 5833 5830 5828 5826 5824 5822 5820 5818 5816 5815 5813 5812 5810 5809 5808 5807 5806 5805 5804 5803 5802 5801 5800 5800 5799 5798 5797 5796 5795 5795 5795 5795 5794 5794 5794 5794 5793 5793 5792 5792 5791
5831 5829 5827 5824 5822 5819 5817 5815 5814 5812 5810 5808 5806 5805 5803 5802 5801 5799 5798 5797 5796 5795 5794 5793 5792 5792 5791 5790 5789 5788 5787 5786 5786 5787 5786 5786 5785 5785 5784 5784 5784 5783 5783
5825 5822 5820 5817 5815 5812 5810 5808 5806 5805 5803 5801 5799 5797 5795 5794 5793 5791 5790 5788 5787 5786 5786 5785 5784 5783 5782 5781 5780 5779 5778 5777 5777 5777 5777 5777 5776 5776 5775 5775 5774 5774 5773
5819 5816 5813 5810 5807 5805 5802 5800 5799 5797 5795 5793 5791 5789 5787 5786 5785 5784 5782 5780 5779 5778 5777 5776 5775 5774 5773 5772 5771 5770 5769 5768 5767 5767 5767 5767 5767 5766 5766 5765 5765 5764 5764
5812 5808 5805 5802 5800 5797 5794 5792 5791 5789 5787 5786 5784 5782 5780 5779 5777 5776 5774 5773 5771 5769 5768 5767 5766 5765 5764 5762 5761 5760 5759 5758 5757 5757 5757 5756 5757 5756 5756 5756 5755 5755 5755
5805 5802 5799 5796 5793 5790 5787 5784 5783 5781 5780 5778 5776 5774 5772 5771 5769 5767 5766 5764 5763 5761 5760 5759 5757 5756 5754 5753 5751 5750 5749 5748 5748 5747 5747 5747 5746 5746 5747 5746 5745 5745 5745